Terminal Aerodrome Forecast
Issued by NWS Billings, MT

Home | Current Version | Previous Version | Text Only | Print | Product List | Glossary Off
Versions: 1 2 3 4 5 6 7 8 9 10 11 12 13 14 15 16 17 18 19 20 21 22 23 24 25 26 27 28 29 30 31 32 33 34 35 36 37 38 39

000
FTUS45 KBYZ 011612 AAB
TAFMLS
TAF AMD
KMLS 011612Z 0116/0212 31014G22KT P6SM VCSH BKN045
     FM020200 31009KT P6SM BKN250=

USA.gov is the U.S. government's official web portal to all federal, state and local government web resources and services.